| time (UTC) | temp F | wind direction | speed MPH | gust MPH | rain 1hr in | rain 24hr in | rain mn in | humidity % | barometer mb |
| 20260903202504 | 84 | 149 | 0.0 | 4.0 | 0.00 | 1.01 | 0.19 | 80 | 1014.8 |
| 20260903202004 | 84 | 129 | 0.0 | 4.0 | 0.00 | 1.01 | 0.19 | 73 | 1014.8 |
| 20260903201504 | 84 | 147 | 0.0 | 3.0 | 0.00 | 1.01 | 0.19 | 75 | 1014.8 |
| 20260903201004 | 85 | 151 | 1.0 | 3.0 | 0.00 | 1.01 | 0.19 | 73 | 1014.8 |
| 20260903200504 | 85 | 213 | 0.0 | 3.0 | 0.00 | 1.01 | 0.19 | 75 | 1014.8 |
| 20260903200004 | 84 | 245 | 0.0 | 3.0 | 0.00 | 1.01 | 0.19 | 75 | 1014.9 |
| 20260903195504 | 84 | 229 | 0.0 | 6.0 | 0.00 | 1.01 | 0.19 | 76 | 1014.8 |
| 20260903195025 | 84 | 178 | 1.0 | 6.0 | 0.00 | 1.01 | 0.19 | 72 | 1014.8 |
| 20260903194504 | 84 | 157 | 1.0 | 4.0 | 0.00 | 1.01 | 0.19 | 76 | 1014.8 |
| 20260903194004 | 84 | 146 | 1.0 | 4.0 | 0.00 | 1.01 | 0.19 | 73 | 1014.9 |
| 20260903193504 | 84 | 11 | 0.0 | 4.0 | 0.00 | 1.01 | 0.19 | 73 | 1015.0 |
| 20260903193025 | 84 | 358 | 0.0 | 4.0 | 0.00 | 1.01 | 0.19 | 71 | 1015.1 |
| 20260903192525 | 84 | 250 | 0.0 | 3.0 | 0.00 | 1.01 | 0.19 | 75 | 1015.1 |
| 20260903192004 | 84 | 190 | 1.0 | 4.0 | 0.00 | 1.01 | 0.19 | 78 | 1015.1 |
| 20260903191504 | 84 | 189 | 1.0 | 4.0 | 0.00 | 1.01 | 0.19 | 76 | 1015.1 |
| 20260903191004 | 83 | 327 | 1.0 | 4.0 | 0.00 | 1.01 | 0.19 | 76 | 1015.1 |
| 20260903190504 | 82 | 337 | 1.0 | 4.0 | 0.00 | 1.01 | 0.19 | 84 | 1015.1 |
| 20260903190004 | 82 | 314 | 1.0 | 4.0 | 0.00 | 1.01 | 0.19 | 75 | 1015.2 |
| 20260903185504 | 81 | 302 | 1.0 | 3.0 | 0.00 | 1.01 | 0.19 | 83 | 1015.4 |
| 20260903185004 | 81 | 341 | 1.0 | 6.0 | 0.00 | 1.01 | 0.19 | 87 | 1015.5 |
| 20260903184504 | 80 | 302 | 1.0 | 6.0 | 0.00 | 1.01 | 0.19 | 79 | 1015.6 |
| 20260903184004 | 81 | 266 | 0.0 | 3.0 | 0.00 | 1.01 | 0.19 | 86 | 1015.6 |
| 20260903183504 | 82 | 272 | 1.0 | 6.0 | 0.00 | 1.01 | 0.19 | 84 | 1015.6 |
| 20260903183004 | 82 | 344 | 1.0 | 6.0 | 0.00 | 1.01 | 0.19 | 84 | 1015.6 |
| 20260903182504 | 82 | 359 | 1.0 | 4.0 | 0.00 | 1.01 | 0.19 | 82 | 1015.7 |
| 20260903182004 | 82 | 82 | 1.0 | 6.0 | 0.00 | 1.01 | 0.19 | 80 | 1015.8 |
| 20260903181504 | 81 | 147 | 1.0 | 6.0 | 0.00 | 1.01 | 0.19 | 83 | 1015.8 |
| 20260903181025 | 80 | 144 | 1.0 | 4.0 | 0.00 | 1.01 | 0.19 | 80 | 1015.8 |
| 20260903180504 | 80 | 144 | 0.0 | 3.0 | 0.00 | 1.01 | 0.19 | 86 | 1015.8 |
| 20260903180004 | 80 | 142 | 0.0 | 3.0 | 0.00 | 1.01 | 0.19 | 86 | 1015.8 |
| 20260903175504 | 79 | 144 | 0.0 | 3.0 | 0.00 | 1.01 | 0.19 | 85 | 1015.9 |
| 20260903175025 | 79 | 169 | 0.0 | 1.0 | 0.00 | 1.01 | 0.19 | 86 | 1015.9 |
| 20260903174504 | 80 | 177 | 0.0 | 3.0 | 0.00 | 1.01 | 0.19 | 86 | 1016.0 |
| 20260903174004 | 80 | 195 | 0.0 | 3.0 | 0.00 | 1.01 | 0.19 | 84 | 1016.1 |
| 20260903173525 | 80 | 245 | 0.0 | 3.0 | 0.00 | 1.01 | 0.19 | 86 | 1016.1 |
| 20260903173025 | 79 | 53 | 0.0 | 3.0 | 0.00 | 1.01 | 0.19 | 82 | 1015.9 |
| 20260903172504 | 79 | 107 | 1.0 | 3.0 | 0.00 | 1.01 | 0.19 | 83 | 1015.9 |
| 20260903172004 | 79 | 161 | 1.0 | 7.0 | 0.00 | 1.01 | 0.19 | 83 | 1016.0 |
| 20260903171504 | 79 | 162 | 1.0 | 7.0 | 0.00 | 1.01 | 0.19 | 83 | 1016.0 |
| 20260903171025 | 80 | 187 | 0.0 | 3.0 | 0.00 | 1.01 | 0.19 | 82 | 1016.0 |
| 20260903170525 | 80 | 168 | 1.0 | 7.0 | 0.00 | 1.01 | 0.19 | 81 | 1016.1 |
| 20260903170004 | 80 | 158 | 1.0 | 9.0 | 0.00 | 1.01 | 0.19 | 82 | 1016.1 |
| 20260903165504 | 80 | 138 | 1.0 | 4.0 | 0.00 | 1.01 | 0.19 | 82 | 1016.2 |
| 20260903165004 | 80 | 153 | 3.0 | 10.0 | 0.00 | 1.01 | 0.19 | 83 | 1016.2 |
| 20260903164504 | 80 | 162 | 1.0 | 10.0 | 0.00 | 1.01 | 0.19 | 83 | 1016.3 |
| 20260903164004 | 80 | 284 | 1.0 | 4.0 | 0.00 | 1.01 | 0.19 | 85 | 1016.4 |
| 20260903163504 | 79 | 176 | 3.0 | 9.0 | 0.00 | 1.01 | 0.19 | 87 | 1016.4 |
| 20260903163004 | 79 | 156 | 3.0 | 9.0 | 0.00 | 1.01 | 0.19 | 86 | 1016.6 |
| 20260903162504 | 78 | 144 | 1.0 | 9.0 | 0.00 | 1.01 | 0.19 | 85 | 1016.6 |
| 20260903162004 | 78 | 135 | 3.0 | 7.0 | 0.00 | 1.01 | 0.19 | 86 | 1016.6 |
| 20260903161504 | 78 | 131 | 1.0 | 7.0 | 0.00 | 1.01 | 0.19 | 86 | 1016.7 |
| 20260903161025 | 77 | 321 | 1.0 | 4.0 | 0.00 | 1.01 | 0.19 | 90 | 1016.7 |
| 20260903160504 | 76 | 164 | 3.0 | 9.0 | 0.00 | 1.01 | 0.19 | 86 | 1016.9 |
| 20260903160025 | 76 | 159 | 3.0 | 9.0 | 0.00 | 1.01 | 0.19 | 89 | 1017.0 |
| 20260903155504 | 75 | 155 | 1.0 | 6.0 | 0.00 | 1.01 | 0.19 | 90 | 1017.0 |
| 20260903155025 | 75 | 153 | 1.0 | 6.0 | 0.00 | 1.01 | 0.19 | 93 | 1017.0 |
| 20260903154504 | 74 | 149 | 1.0 | 6.0 | 0.00 | 1.01 | 0.19 | 95 | 1017.1 |
| 20260903154004 | 74 | 151 | 1.0 | 7.0 | 0.00 | 1.01 | 0.19 | 95 | 1017.1 |
| 20260903153504 | 73 | 151 | 3.0 | 7.0 | 0.00 | 1.01 | 0.19 | 95 | 1017.1 |
| 20260903153004 | 73 | 153 | 1.0 | 7.0 | 0.00 | 1.01 | 0.19 | 96 | 1017.1 |
| 20260903152525 | 72 | 161 | 1.0 | 7.0 | 0.00 | 1.01 | 0.19 | 98 | 1017.3 |
| 20260903152004 | 72 | 162 | 1.0 | 4.0 | 0.00 | 1.01 | 0.19 | 99 | 1017.2 |
| 20260903151525 | 72 | 159 | 1.0 | 10.0 | 0.00 | 1.01 | 0.19 | 100 | 1017.3 |
| 20260903151004 | 71 | 157 | 3.0 | 10.0 | 0.00 | 1.01 | 0.19 | 100 | 1017.2 |
| 20260903150504 | 71 | 152 | 3.0 | 9.0 | 0.00 | 1.01 | 0.19 | 100 | 1017.3 |
| 20260903150025 | 71 | 152 | 1.0 | 4.0 | 0.00 | 1.01 | 0.19 | 100 | 1017.2 |
| 20260903145504 | 71 | 162 | 1.0 | 7.0 | 0.00 | 1.01 | 0.19 | 100 | 1017.2 |
| 20260903145004 | 70 | 165 | 1.0 | 7.0 | 0.00 | 1.01 | 0.19 | 100 | 1017.2 |
| 20260903144504 | 70 | 159 | 3.0 | 7.0 | 0.00 | 1.01 | 0.19 | 100 | 1017.2 |
| 20260903144004 | 70 | 154 | 3.0 | 10.0 | 0.00 | 1.01 | 0.19 | 100 | 1017.2 |
| 20260903143504 | 70 | 156 | 1.0 | 10.0 | 0.00 | 1.01 | 0.19 | 100 | 1017.4 |
| 20260903143004 | 70 | 164 | 1.0 | 7.0 | 0.00 | 1.01 | 0.19 | 100 | 1017.5 |
| 20260903142504 | 70 | 160 | 1.0 | 7.0 | 0.00 | 1.01 | 0.19 | 100 | 1017.7 |
| 20260903142004 | 70 | 155 | 1.0 | 7.0 | 0.00 | 1.01 | 0.19 | 100 | 1017.6 |
| 20260903141504 | 69 | 149 | 0.0 | 3.0 | 0.00 | 1.01 | 0.19 | 100 | 1017.6 |
| 20260903141004 | 69 | 149 | 0.0 | 3.0 | 0.00 | 1.01 | 0.19 | 100 | 1017.7 |
| 20260903140525 | 69 | 149 | 0.0 | 1.0 | 0.00 | 1.01 | 0.19 | 100 | 1017.8 |
| 20260903140004 | 69 | 149 | 0.0 | 1.0 | 0.00 | 1.01 | 0.19 | 100 | 1017.7 |
| 20260903135504 | 69 | 149 | 0.0 | 3.0 | 0.00 | 1.01 | 0.19 | 100 | 1017.5 |
| 20260903135004 | 69 | 149 | 0.0 | 3.0 | 0.00 | 1.01 | 0.19 | 100 | 1017.5 |
| 20260903134504 | 69 | 151 | 1.0 | 4.0 | 0.00 | 1.01 | 0.19 | 100 | 1017.4 |
| 20260903134004 | 69 | 152 | 0.0 | 4.0 | 0.00 | 1.01 | 0.19 | 100 | 1017.3 |
| 20260903133504 | 68 | 167 | 0.0 | 1.0 | 0.00 | 1.01 | 0.19 | 100 | 1017.3 |
| 20260903133025 | 68 | 166 | 0.0 | 3.0 | 0.00 | 1.01 | 0.19 | 100 | 1017.3 |
| 20260903132504 | 68 | 141 | 0.0 | 4.0 | 0.00 | 1.01 | 0.19 | 100 | 1017.2 |
| 20260903132004 | 68 | 137 | 1.0 | 6.0 | 0.00 | 1.01 | 0.19 | 100 | 1017.2 |
| 20260903131503 | 68 | 154 | 1.0 | 6.0 | 0.00 | 1.01 | 0.19 | 100 | 1017.2 |
| 20260903131025 | 68 | 159 | 0.0 | 6.0 | 0.00 | 1.01 | 0.19 | 100 | 1017.1 |
| 20260903130503 | 68 | 185 | 1.0 | 4.0 | 0.00 | 1.01 | 0.19 | 100 | 1017.1 |
| 20260903130004 | 68 | 188 | 1.0 | 6.0 | 0.00 | 1.01 | 0.19 | 100 | 1017.2 |
| 20260903125504 | 68 | 176 | 1.0 | 6.0 | 0.00 | 1.01 | 0.19 | 100 | 1017.2 |
| 20260903125004 | 68 | 158 | 1.0 | 4.0 | 0.00 | 1.01 | 0.19 | 100 | 1017.2 |
| 20260903124504 | 68 | 157 | 1.0 | 4.0 | 0.00 | 1.01 | 0.19 | 100 | 1017.2 |
| 20260903124004 | 68 | 168 | 1.0 | 4.0 | 0.00 | 1.01 | 0.19 | 100 | 1017.1 |
| 20260903123504 | 68 | 185 | 0.0 | 3.0 | 0.00 | 1.01 | 0.19 | 100 | 1017.2 |
| 20260903123025 | 67 | 185 | 0.0 | 3.0 | 0.00 | 1.01 | 0.19 | 100 | 1017.1 |
| 20260903122503 | 67 | 185 | 0.0 | 1.0 | 0.00 | 1.01 | 0.19 | 100 | 1017.1 |
| 20260903122004 | 67 | 185 | 0.0 | 1.0 | 0.00 | 1.01 | 0.19 | 100 | 1017.1 |
| 20260903121504 | 67 | 185 | 0.0 | 1.0 | 0.00 | 1.01 | 0.19 | 100 | 1017.1 |
| 20260903121004 | 67 | 185 | 0.0 | 1.0 | 0.00 | 1.01 | 0.19 | 100 | 1016.9 |
| 20260903120504 | 67 | 185 | 0.0 | 1.0 | 0.00 | 1.01 | 0.19 | 100 | 1016.9 |
| 20260903120004 | 67 | 185 | 0.0 | 3.0 | 0.00 | 1.01 | 0.19 | 100 | 1016.7 |
| 20260903115504 | 67 | 180 | 1.0 | 6.0 | 0.00 | 1.01 | 0.19 | 100 | 1016.7 |
| 20260903115024 | 67 | 168 | 1.0 | 7.0 | 0.00 | 1.01 | 0.19 | 100 | 1016.7 |
| 20260903114504 | 67 | 169 | 1.0 | 7.0 | 0.00 | 1.01 | 0.19 | 100 | 1016.7 |
| 20260903114004 | 67 | 196 | 1.0 | 3.0 | 0.00 | 1.01 | 0.19 | 100 | 1016.8 |
| 20260903113503 | 67 | 205 | 1.0 | 3.0 | 0.01 | 1.01 | 0.19 | 100 | 1016.7 |
| 20260903113004 | 67 | 180 | 1.0 | 6.0 | 0.01 | 1.01 | 0.19 | 100 | 1016.7 |
| 20260903112524 | 66 | 158 | 1.0 | 6.0 | 0.02 | 1.01 | 0.19 | 100 | 1016.7 |
| 20260903112003 | 66 | 138 | 1.0 | 3.0 | 0.02 | 1.01 | 0.19 | 100 | 1016.4 |
| 20260903111524 | 66 | 143 | 1.0 | 6.0 | 0.02 | 1.01 | 0.19 | 100 | 1016.3 |
| 20260903111003 | 66 | 150 | 1.0 | 6.0 | 0.02 | 1.01 | 0.19 | 100 | 1016.3 |
| 20260903110504 | 66 | 142 | 1.0 | 4.0 | 0.02 | 1.01 | 0.19 | 100 | 1016.2 |
| 20260903110004 | 66 | 153 | 1.0 | 7.0 | 0.02 | 1.01 | 0.19 | 100 | 1016.4 |
| 20260903105525 | 66 | 166 | 3.0 | 10.0 | 0.02 | 1.01 | 0.19 | 100 | 1016.4 |
| 20260903105004 | 66 | 168 | 1.0 | 10.0 | 0.02 | 1.01 | 0.19 | 100 | 1016.3 |
| 20260903104503 | 66 | 178 | 1.0 | 3.0 | 0.02 | 1.01 | 0.19 | 100 | 1016.6 |
| 20260903104004 | 66 | 186 | 1.0 | 3.0 | 0.02 | 1.01 | 0.19 | 100 | 1016.8 |
| 20260903103524 | 66 | 207 | 1.0 | 3.0 | 0.01 | 1.00 | 0.18 | 100 | 1016.8 |
| 20260903103004 | 66 | 242 | 1.0 | 4.0 | 0.01 | 1.00 | 0.18 | 100 | 1017.3 |
| 20260903102524 | 66 | 220 | 3.0 | 7.0 | 0.00 | 0.99 | 0.17 | 100 | 1017.3 |
| 20260903102003 | 66 | 200 | 3.0 | 7.0 | 0.00 | 0.99 | 0.17 | 100 | 1016.7 |
| 20260903101504 | 66 | 194 | 3.0 | 7.0 | 0.00 | 0.99 | 0.17 | 100 | 1016.9 |
| 20260903101024 | 66 | 205 | 3.0 | 7.0 | 0.00 | 0.99 | 0.17 | 100 | 1017.2 |
| 20260903100503 | 66 | 218 | 3.0 | 7.0 | 0.00 | 0.99 | 0.17 | 100 | 1017.6 |
| 20260903100004 | 66 | 220 | 3.0 | 7.0 | 0.00 | 0.99 | 0.17 | 100 | 1017.5 |
| 20260903095503 | 66 | 209 | 3.0 | 6.0 | 0.00 | 0.99 | 0.17 | 100 | 1017.5 |
| 20260903095004 | 66 | 191 | 1.0 | 6.0 | 0.00 | 0.99 | 0.17 | 100 | 1017.2 |
| 20260903094503 | 66 | 195 | 1.0 | 3.0 | 0.00 | 0.99 | 0.17 | 100 | 1017.1 |
| 20260903094024 | 66 | 217 | 1.0 | 3.0 | 0.00 | 0.99 | 0.17 | 100 | 1017.5 |
| 20260903093503 | 66 | 214 | 1.0 | 4.0 | 0.00 | 0.99 | 0.17 | 100 | 1017.4 |
| 20260903093025 | 66 | 209 | 1.0 | 4.0 | 0.00 | 0.99 | 0.17 | 100 | 1017.2 |
| 20260903092503 | 66 | 204 | 1.0 | 6.0 | 0.00 | 0.99 | 0.17 | 100 | 1017.2 |
| 20260903092003 | 66 | 198 | 1.0 | 6.0 | 0.00 | 0.99 | 0.17 | 100 | 1017.2 |
| 20260903091524 | 66 | 202 | 1.0 | 4.0 | 0.00 | 0.99 | 0.17 | 100 | 1017.4 |
| 20260903091003 | 66 | 202 | 1.0 | 3.0 | 0.00 | 0.99 | 0.17 | 100 | 1017.6 |
| 20260903090524 | 65 | 196 | 1.0 | 3.0 | 0.00 | 0.99 | 0.17 | 100 | 1017.5 |
| 20260903090004 | 65 | 185 | 1.0 | 4.0 | 0.00 | 0.99 | 0.17 | 100 | 1017.5 |
| 20260903085503 | 65 | 182 | 1.0 | 6.0 | 0.00 | 0.99 | 0.17 | 100 | 1017.2 |
| 20260903085003 | 65 | 189 | 1.0 | 6.0 | 0.00 | 0.99 | 0.17 | 100 | 1017.0 |
| 20260903084503 | 65 | 178 | 1.0 | 9.0 | 0.00 | 0.99 | 0.17 | 100 | 1016.8 |
| 20260903084004 | 65 | 169 | 1.0 | 9.0 | 0.00 | 0.99 | 0.17 | 100 | 1016.8 |
| 20260903083503 | 65 | 171 | 1.0 | 4.0 | 0.00 | 0.99 | 0.17 | 100 | 1016.7 |
| 20260903083003 | 65 | 170 | 3.0 | 6.0 | 0.00 | 0.99 | 0.17 | 100 | 1016.7 |
| 20260903082503 | 65 | 160 | 1.0 | 6.0 | 0.00 | 0.99 | 0.17 | 100 | 1016.9 |
| 20260903082024 | 65 | 146 | 1.0 | 6.0 | 0.00 | 0.99 | 0.17 | 100 | 1017.1 |
| 20260903081503 | 65 | 138 | 1.0 | 6.0 | 0.00 | 0.99 | 0.17 | 100 | 1017.2 |
| 20260903081003 | 65 | 138 | 1.0 | 4.0 | 0.00 | 0.99 | 0.17 | 100 | 1017.3 |
| 20260903080503 | 65 | 150 | 1.0 | 6.0 | 0.00 | 0.99 | 0.17 | 100 | 1017.2 |
| 20260903080003 | 65 | 161 | 1.0 | 6.0 | 0.00 | 0.99 | 0.17 | 100 | 1017.0 |
| 20260903075503 | 65 | 166 | 1.0 | 6.0 | 0.00 | 0.99 | 0.17 | 100 | 1017.0 |
| 20260903075003 | 65 | 174 | 1.0 | 6.0 | 0.01 | 0.99 | 0.17 | 100 | 1016.9 |
| 20260903074503 | 65 | 183 | 1.0 | 6.0 | 0.01 | 0.99 | 0.17 | 100 | 1017.0 |
| 20260903074024 | 65 | 185 | 1.0 | 6.0 | 0.02 | 0.99 | 0.17 | 100 | 1016.6 |
| 20260903073503 | 65 | 203 | 1.0 | 4.0 | 0.04 | 0.99 | 0.17 | 100 | 1016.8 |
| 20260903073003 | 65 | 206 | 1.0 | 6.0 | 0.05 | 0.99 | 0.17 | 100 | 1016.9 |
| 20260903072524 | 65 | 198 | 3.0 | 9.0 | 0.07 | 0.99 | 0.17 | 100 | 1016.6 |
| 20260903072003 | 65 | 177 | 1.0 | 9.0 | 0.09 | 0.99 | 0.17 | 100 | 1016.6 |
| 20260903071503 | 65 | 163 | 1.0 | 6.0 | 0.10 | 0.99 | 0.17 | 100 | 1016.4 |
| 20260903071003 | 65 | 189 | 1.0 | 4.0 | 0.11 | 0.99 | 0.17 | 100 | 1016.7 |
| 20260903070503 | 65 | 181 | 1.0 | 7.0 | 0.13 | 0.99 | 0.17 | 99 | 1016.4 |
| 20260903070003 | 65 | 179 | 3.0 | 7.0 | 0.13 | 0.99 | 0.17 | 99 | 1016.4 |
| 20260903065503 | 65 | 173 | 1.0 | 6.0 | 0.14 | 0.99 | 0.17 | 99 | 1016.4 |
| 20260903065003 | 65 | 166 | 3.0 | 7.0 | 0.13 | 0.98 | 0.16 | 99 | 1016.5 |
| 20260903064503 | 65 | 167 | 3.0 | 7.0 | 0.13 | 0.98 | 0.16 | 99 | 1016.7 |
| 20260903064024 | 65 | 165 | 3.0 | 6.0 | 0.12 | 0.97 | 0.15 | 100 | 1016.9 |
| 20260903063524 | 65 | 162 | 1.0 | 6.0 | 0.10 | 0.95 | 0.13 | 100 | 1017.3 |
| 20260903063003 | 65 | 157 | 1.0 | 6.0 | 0.09 | 0.94 | 0.12 | 99 | 1017.8 |
| 20260903062503 | 65 | 158 | 1.0 | 6.0 | 0.07 | 0.92 | 0.10 | 99 | 1017.9 |
| 20260903062003 | 65 | 162 | 1.0 | 4.0 | 0.05 | 0.90 | 0.08 | 99 | 1018.2 |
| 20260903061503 | 65 | 170 | 1.0 | 6.0 | 0.04 | 0.89 | 0.07 | 99 | 1018.6 |
| 20260903061003 | 65 | 192 | 1.0 | 6.0 | 0.03 | 0.88 | 0.06 | 99 | 1018.8 |
| 20260903060503 | 65 | 225 | 1.0 | 3.0 | 0.02 | 0.86 | 0.04 | 99 | 1019.0 |
| 20260903060003 | 65 | 225 | 1.0 | 10.0 | 0.03 | 0.86 | 0.04 | 99 | 1019.0 |
| 20260903055503 | 65 | 202 | 1.0 | 10.0 | 0.02 | 0.85 | 0.03 | 99 | 1018.7 |
| 20260903055024 | 65 | 180 | 1.0 | 10.0 | 0.02 | 0.85 | 0.03 | 99 | 1018.3 |
| 20260903054524 | 65 | 185 | 1.0 | 3.0 | 0.02 | 0.85 | 0.03 | 99 | 1018.1 |
| 20260903054003 | 65 | 185 | 1.0 | 3.0 | 0.02 | 0.85 | 0.03 | 99 | 1018.2 |
| 20260903053503 | 65 | 185 | 1.0 | 3.0 | 0.03 | 0.85 | 0.03 | 99 | 1018.2 |
| 20260903053003 | 65 | 185 | 0.0 | 1.0 | 0.03 | 0.85 | 0.03 | 99 | 1018.3 |
| 20260903052503 | 65 | 181 | 1.0 | 3.0 | 0.03 | 0.85 | 0.03 | 99 | 1018.3 |
| 20260903052003 | 65 | 173 | 1.0 | 3.0 | 0.03 | 0.85 | 0.03 | 99 | 1018.1 |
| 20260903051524 | 65 | 169 | 1.0 | 6.0 | 0.03 | 0.85 | 0.03 | 99 | 1018.3 |
| 20260903051024 | 65 | 174 | 1.0 | 6.0 | 0.03 | 0.85 | 0.03 | 99 | 1018.4 |
| 20260903050503 | 66 | 179 | 1.0 | 4.0 | 0.02 | 0.84 | 0.02 | 99 | 1018.5 |
| 20260903050003 | 66 | 181 | 0.0 | 1.0 | 0.01 | 0.83 | 0.01 | 99 | 1018.9 |
| 20260903045503 | 66 | 181 | 0.0 | 3.0 | 0.01 | 0.83 | 0.01 | 99 | 1019.1 |
| 20260903045003 | 66 | 181 | 1.0 | 3.0 | 0.01 | 0.83 | 0.01 | 99 | 1019.4 |
| 20260903044503 | 66 | 181 | 1.0 | 3.0 | 0.01 | 0.83 | 0.01 | 99 | 1019.3 |
| 20260903044003 | 66 | 181 | 1.0 | 3.0 | 0.01 | 0.83 | 0.01 | 99 | 1019.8 |
| 20260903043503 | 66 | 181 | 1.0 | 3.0 | 0.00 | 0.82 | 0.00 | 99 | 1019.9 |
| 20260903043024 | 66 | 180 | 0.0 | 3.0 | 0.00 | 0.82 | 0.00 | 99 | 1020.0 |
| 20260903042503 | 66 | 143 | 0.0 | 1.0 | 0.01 | 0.82 | 0.00 | 99 | 1019.9 |
| 20260903042003 | 66 | 126 | 0.0 | 1.0 | 0.01 | 0.82 | 0.00 | 99 | 1019.6 |
| 20260903041503 | 66 | 160 | 0.0 | 3.0 | 0.02 | 0.82 | 0.00 | 99 | 1019.5 |
| 20260903041003 | 66 | 161 | 1.0 | 3.0 | 0.03 | 0.82 | 0.00 | 99 | 1019.4 |
| 20260903040503 | 66 | 169 | 1.0 | 3.0 | 0.04 | 0.82 | 0.00 | 99 | 1019.2 |
| 20260903040004 | 66 | 175 | 1.0 | 3.0 | 0.04 | 0.82 | 0.00 | 98 | 1019.1 |
| 20260903035505 | 66 | 163 | 1.0 | 9.0 | 0.05 | 0.82 | 0.82 | 98 | 1019.0 |
| 20260903035026 | 66 | 156 | 1.0 | 9.0 | 0.06 | 0.82 | 0.82 | 98 | 1019.0 |
| 20260903034505 | 66 | 160 | 3.0 | 6.0 | 0.09 | 0.82 | 0.82 | 98 | 1019.3 |
| 20260903034005 | 67 | 173 | 1.0 | 6.0 | 0.22 | 0.82 | 0.82 | 99 | 1019.7 |
| 20260903033505 | 67 | 172 | 1.0 | 9.0 | 0.55 | 0.82 | 0.82 | 99 | 1019.9 |
| 20260903033005 | 67 | 158 | 1.0 | 9.0 | 0.74 | 0.82 | 0.82 | 98 | 1019.8 |
| 20260903032505 | 67 | 132 | 1.0 | 4.0 | 0.81 | 0.81 | 0.81 | 98 | 1019.9 |
| 20260903032005 | 67 | 106 | 1.0 | 4.0 | 0.81 | 0.81 | 0.81 | 98 | 1019.6 |
| 20260903031505 | 68 | 124 | 1.0 | 4.0 | 0.80 | 0.80 | 0.80 | 99 | 1019.5 |
| 20260903031026 | 68 | 147 | 1.0 | 4.0 | 0.79 | 0.79 | 0.79 | 99 | 1020.4 |
| 20260903030505 | 68 | 144 | 1.0 | 4.0 | 0.78 | 0.78 | 0.78 | 98 | 1020.6 |
| 20260903030005 | 68 | 53 | 1.0 | 6.0 | 0.78 | 0.78 | 0.78 | 98 | 1020.6 |
| 20260903025505 | 68 | 317 | 3.0 | 10.0 | 0.77 | 0.77 | 0.77 | 98 | 1021.0 |
| 20260903025005 | 68 | 253 | 3.0 | 10.0 | 0.76 | 0.76 | 0.76 | 98 | 1021.2 |
| 20260903024505 | 68 | 279 | 1.0 | 7.0 | 0.73 | 0.73 | 0.73 | 98 | 1021.6 |
| 20260903024005 | 68 | 58 | 3.0 | 13.0 | 0.60 | 0.60 | 0.60 | 97 | 1021.4 |
| 20260903023505 | 68 | 316 | 4.0 | 13.0 | 0.27 | 0.27 | 0.27 | 97 | 1021.2 |
| 20260903023005 | 68 | 323 | 3.0 | 12.0 | 0.08 | 0.08 | 0.08 | 97 | 1021.3 |
| 20260903022504 | 68 | 247 | 1.0 | 6.0 | 0.00 | 0.00 | 0.00 | 96 | 1019.8 |
| 20260903022005 | 68 | 165 | 1.0 | 6.0 | 0.00 | 0.00 | 0.00 | 96 | 1019.0 |
| 20260903021505 | 68 | 161 | 1.0 | 7.0 | 0.00 | 0.00 | 0.00 | 96 | 1019.1 |
| 20260903021005 | 68 | 171 | 3.0 | 12.0 | 0.00 | 0.00 | 0.00 | 96 | 1019.4 |
| 20260903020505 | 68 | 167 | 3.0 | 12.0 | 0.00 | 0.00 | 0.00 | 96 | 1019.3 |
| 20260903020005 | 68 | 160 | 3.0 | 12.0 | 0.00 | 0.00 | 0.00 | 96 | 1018.8 |
| 20260903015526 | 68 | 159 | 3.0 | 9.0 | 0.00 | 0.00 | 0.00 | 96 | 1019.0 |
| 20260903015005 | 68 | 160 | 3.0 | 9.0 | 0.00 | 0.00 | 0.00 | 96 | 1019.2 |
| 20260903014505 | 68 | 167 | 3.0 | 13.0 | 0.00 | 0.00 | 0.00 | 96 | 1019.5 |
| 20260903014005 | 68 | 167 | 4.0 | 14.0 | 0.00 | 0.00 | 0.00 | 96 | 1019.1 |
| 20260903013526 | 68 | 165 | 4.0 | 14.0 | 0.00 | 0.00 | 0.00 | 96 | 1019.1 |
| 20260903013005 | 69 | 166 | 3.0 | 12.0 | 0.00 | 0.00 | 0.00 | 96 | 1019.3 |
| 20260903012505 | 69 | 169 | 3.0 | 12.0 | 0.00 | 0.00 | 0.00 | 96 | 1019.9 |
| 20260903012005 | 69 | 170 | 3.0 | 9.0 | 0.00 | 0.00 | 0.00 | 96 | 1019.6 |
| 20260903011504 | 69 | 168 | 3.0 | 9.0 | 0.00 | 0.00 | 0.00 | 96 | 1020.0 |
| 20260903011004 | 69 | 170 | 1.0 | 7.0 | 0.00 | 0.00 | 0.00 | 96 | 1019.9 |
| 20260903010504 | 69 | 171 | 3.0 | 7.0 | 0.00 | 0.00 | 0.00 | 96 | 1019.5 |
| 20260903010025 | 69 | 163 | 3.0 | 10.0 | 0.00 | 0.00 | 0.00 | 95 | 1019.1 |
| 20260903005504 | 69 | 162 | 4.0 | 16.0 | 0.00 | 0.00 | 0.00 | 95 | 1018.7 |
| 20260903005005 | 69 | 160 | 3.0 | 16.0 | 0.00 | 0.00 | 0.00 | 96 | 1018.4 |
| 20260903004504 | 69 | 158 | 3.0 | 7.0 | 0.00 | 0.00 | 0.00 | 96 | 1018.1 |
| 20260903004005 | 69 | 165 | 3.0 | 7.0 | 0.00 | 0.00 | 0.00 | 96 | 1018.3 |
| 20260903003525 | 69 | 164 | 3.0 | 12.0 | 0.00 | 0.00 | 0.00 | 96 | 1018.6 |
| 20260903003005 | 69 | 162 | 3.0 | 12.0 | 0.00 | 0.00 | 0.00 | 96 | 1018.7 |
| 20260903002504 | 69 | 163 | 1.0 | 6.0 | 0.00 | 0.00 | 0.00 | 96 | 1018.8 |
| 20260903002005 | 69 | 162 | 1.0 | 6.0 | 0.00 | 0.00 | 0.00 | 96 | 1019.0 |
| 20260903001504 | 69 | 169 | 1.0 | 7.0 | 0.00 | 0.00 | 0.00 | 96 | 1019.2 |
| 20260903001004 | 69 | 169 | 3.0 | 9.0 | 0.00 | 0.00 | 0.00 | 95 | 1019.0 |
| 20260903000504 | 69 | 170 | 3.0 | 9.0 | 0.00 | 0.00 | 0.00 | 95 | 1018.7 |
| 20260903000005 | 69 | 172 | 1.0 | 7.0 | 0.00 | 0.00 | 0.00 | 95 | 1018.7 |
| 20260902235504 | 69 | 165 | 1.0 | 6.0 | 0.00 | 0.00 | 0.00 | 96 | 1018.8 |
| 20260902235005 | 70 | 157 | 1.0 | 6.0 | 0.00 | 0.00 | 0.00 | 95 | 1019.0 |
| 20260902234504 | 70 | 155 | 1.0 | 6.0 | 0.00 | 0.00 | 0.00 | 96 | 1019.1 |
| 20260902234005 | 70 | 172 | 3.0 | 12.0 | 0.00 | 0.00 | 0.00 | 96 | 1018.7 |
| 20260902233504 | 70 | 167 | 3.0 | 12.0 | 0.00 | 0.00 | 0.00 | 96 | 1018.4 |
| 20260902233004 | 70 | 161 | 3.0 | 9.0 | 0.00 | 0.00 | 0.00 | 96 | 1018.2 |
| 20260902232504 | 70 | 167 | 3.0 | 10.0 | 0.00 | 0.00 | 0.00 | 96 | 1018.3 |
| 20260902232026 | 70 | 167 | 3.0 | 10.0 | 0.00 | 0.00 | 0.00 | 96 | 1018.3 |
| 20260902231504 | 70 | 166 | 3.0 | 7.0 | 0.00 | 0.00 | 0.00 | 96 | 1018.1 |
| 20260902231026 | 70 | 160 | 3.0 | 7.0 | 0.00 | 0.00 | 0.00 | 96 | 1018.1 |
| 20260902230526 | 70 | 165 | 3.0 | 7.0 | 0.00 | 0.00 | 0.00 | 96 | 1018.4 |
| 20260902230004 | 70 | 169 | 1.0 | 6.0 | 0.00 | 0.00 | 0.00 | 96 | 1018.5 |
| 20260902225504 | 70 | 167 | 3.0 | 9.0 | 0.00 | 0.00 | 0.00 | 95 | 1018.6 |
| 20260902225005 | 70 | 165 | 3.0 | 9.0 | 0.00 | 0.00 | 0.00 | 95 | 1018.8 |
| 20260902224504 | 70 | 161 | 3.0 | 7.0 | 0.00 | 0.00 | 0.00 | 96 | 1018.6 |
| 20260902224004 | 70 | 161 | 3.0 | 9.0 | 0.00 | 0.00 | 0.00 | 96 | 1018.5 |
| 20260902223504 | 70 | 161 | 3.0 | 10.0 | 0.00 | 0.00 | 0.00 | 96 | 1018.7 |
| 20260902223004 | 70 | 159 | 1.0 | 10.0 | 0.00 | 0.00 | 0.00 | 96 | 1018.7 |
| 20260902222505 | 70 | 157 | 1.0 | 4.0 | 0.00 | 0.00 | 0.00 | 96 | 1018.7 |
| 20260902222005 | 70 | 160 | 1.0 | 6.0 | 0.00 | 0.00 | 0.00 | 95 | 1018.7 |
| 20260902221504 | 71 | 167 | 1.0 | 6.0 | 0.00 | 0.00 | 0.00 | 95 | 1018.8 |
| 20260902221025 | 71 | 165 | 3.0 | 14.0 | 0.00 | 0.00 | 0.00 | 95 | 1018.8 |
| 20260902220504 | 71 | 160 | 3.0 | 14.0 | 0.00 | 0.00 | 0.00 | 95 | 1018.9 |
| 20260902220004 | 71 | 166 | 3.0 | 7.0 | 0.00 | 0.00 | 0.00 | 95 | 1018.9 |
| 20260902215525 | 71 | 169 | 1.0 | 7.0 | 0.00 | 0.00 | 0.00 | 95 | 1019.0 |
| 20260902215025 | 71 | 163 | 1.0 | 7.0 | 0.00 | 0.00 | 0.00 | 95 | 1019.1 |
| 20260902214504 | 71 | 158 | 1.0 | 10.0 | 0.00 | 0.00 | 0.00 | 96 | 1019.1 |
| 20260902214004 | 71 | 161 | 1.0 | 10.0 | 0.00 | 0.00 | 0.00 | 96 | 1019.1 |
| 20260902213504 | 71 | 162 | 1.0 | 7.0 | 0.00 | 0.00 | 0.00 | 96 | 1019.2 |
| 20260902213004 | 71 | 155 | 1.0 | 7.0 | 0.00 | 0.00 | 0.00 | 95 | 1019.1 |
| 20260902212504 | 71 | 157 | 1.0 | 7.0 | 0.00 | 0.00 | 0.00 | 95 | 1019.2 |
| 20260902212004 | 71 | 160 | 1.0 | 9.0 | 0.00 | 0.00 | 0.00 | 95 | 1019.2 |
| 20260902211504 | 71 | 160 | 3.0 | 9.0 | 0.00 | 0.00 | 0.00 | 96 | 1019.1 |
| 20260902211004 | 71 | 164 | 1.0 | 9.0 | 0.00 | 0.00 | 0.00 | 95 | 1019.2 |
| 20260902210504 | 71 | 157 | 1.0 | 9.0 | 0.00 | 0.00 | 0.00 | 95 | 1019.1 |
| 20260902210004 | 71 | 156 | 1.0 | 6.0 | 0.00 | 0.00 | 0.00 | 95 | 1019.0 |
| 20260902205504 | 71 | 153 | 1.0 | 4.0 | 0.00 | 0.00 | 0.00 | 95 | 1019.0 |
| 20260902205004 | 71 | 146 | 1.0 | 6.0 | 0.00 | 0.00 | 0.00 | 95 | 1018.8 |
| 20260902204504 | 71 | 162 | 3.0 | 7.0 | 0.00 | 0.00 | 0.00 | 95 | 1018.9 |
| 20260902204004 | 71 | 178 | 3.0 | 7.0 | 0.00 | 0.00 | 0.00 | 96 | 1019.0 |
| 20260902203504 | 70 | 169 | 1.0 | 9.0 | 0.00 | 0.00 | 0.00 | 96 | 1019.1 |
| 20260902203004 | 70 | 154 | 1.0 | 9.0 | 0.00 | 0.00 | 0.00 | 96 | 1019.1 |